[Iaude] MPEC N47: 2024 ML2 [a=2.01,e=0.42,i=6.8,H=21.9]
    mpec at cfa.harvard.edu 
    mpec at cfa.harvard.edu
       
    Fri Jul  5 10:19:46 EDT 2024
    
    
  
M.P.E.C. 2024-N47                                  Issued 2024 July 5, 14:18 UT
     The Minor Planet Electronic Circulars contain information on unusual
         minor planets, routine data on comets and natural satellites,
         and occasional editorial announcements.  They are published
    on behalf of Division F of the International Astronomical Union by the
          Minor Planet Center, Smithsonian Astrophysical Observatory,
                          Cambridge, MA 02138, U.S.A.
			  
             Prepared using the Tamkin Foundation Computer Network
                              MPC at CFA.HARVARD.EDU
            URL https://www.minorplanetcenter.net/    ISSN 1523-6714
                                    2024 ML2                                    
Observations:
     K24M02L* C2024 06 30.57857423 08 32.569-18 22 24.64         21.43wXEN047F52
     K24M02L  C2024 06 30.59052723 08 34.330-18 22 30.97         21.50wXEN047F52
     K24M02L  C2024 06 30.60250823 08 36.096-18 22 37.01         22.18wXEN047F52
     K24M02L |C2024 07 01.39276023 10 39.790-18 28 50.90         21.2 GVEN047807
     K24M02L |C2024 07 01.39844023 10 40.660-18 28 52.80         21.0 GVEN047807
     K24M02L |C2024 07 01.40380023 10 41.420-18 28 55.70         21.4 GVEN047807
     K24M02L  C2024 07 01.58421023 11 09.943-18 30 51.36         21.51GVEN047F51
     K24M02L  C2024 07 01.58502623 11 10.070-18 30 51.86         21.45GVEN047F51
     K24M02L 3C2024 07 05.57363923 20 45.299-19 05 50.10         21.36GVEN047T14
     K24M02L 3C2024 07 05.57461823 20 45.423-19 05 50.65         21.45GVEN047T14
     K24M02L 3C2024 07 05.57559623 20 45.541-19 05 51.22         21.46GVEN047T14
Observer details:
807 Cerro Tololo Observatory, La Serena.  Observers T. Linder, R. Holmes.
    0.61-m f/6.8 Ritchey-Chretien + CCD.
F51 Pan-STARRS 1, Haleakala.  Observers J. Herman, T. Lowe, P. Minguez, A.
    Schultz, I. Smith.  Measurers K. Chambers, T. de Boer, J. Fairlamb, H.
    Gao, M. Huber, C.-C. Lin, E. Magnier, Y. Ramanjooloo, R. Wainscoat, R.
    Weryk.  1.8-m Ritchey-Chretien + CCD.
F52 Pan-STARRS 2, Haleakala.  Observers J. Herman, T. Lowe, P. Minguez, A.
    Schultz, I. Smith.  Measurers K. Chambers, T. de Boer, J. Fairlamb, H.
    Gao, M. Huber, C.-C. Lin, E. Magnier, Y. Ramanjooloo, R. Wainscoat, R.
    Weryk.  1.8-m Ritchey-Chretien + CCD.
T14 Canada-France-Hawaii Telescope, Maunakea.  Observers R. Wainscoat, H.
    Januszewski, H. Flewelling.  Measurers R. Weryk, R. Wainscoat.  3.6-m
    f/4.1 reflector + CCD.
Orbital elements:
2024 ML2                                                 Earth MOID = 0.1479 AU
Epoch 2024 Mar. 31.0 TT = JDT 2460400.5                 MPC                     
M 335.99851              (2000.0)            P               Q                  
n   0.34673583     Peri.  185.38775     +0.02013320     +0.99272521             
a   2.0066436      Node    85.80403     -0.91279323     +0.06669434             
e   0.4200217      Incl.    6.83589     -0.40792545     -0.10024235             
P   2.84           H   21.99          G   0.15           U   9                  
Residuals in seconds of arc
240630 F52  0.0   0.1+    240701 807  0.3+  0.4+    240705 T14  0.0   0.0
240630 F52  0.0   0.1-    240701 807  0.2+  0.2+    240705 T14  0.0   0.0
240630 F52  0.0   0.0     240701 F51  0.1-  0.0     240705 T14  0.0   0.0
240701 807  0.4-  0.5-    240701 F51  0.1+  0.1-
Ephemeris:
2024 ML2                 a,e,i = 2.01, 0.42, 7                   q = 1.1638
Date    TT    R. A. (2000) Decl.     Delta      r    Elong.  Phase     V
2024 06 05    21 37 00.3 -15 23 17   0.2988  1.1643   113.0    53.3    21.7
...
2024 06 20    22 36 06.4 -17 01 19   0.2968  1.1701   114.3    52.3    21.6
...
2024 06 28    23 01 25.7 -18 01 08   0.3007  1.1815   116.4    50.4    21.6
...
2024 07 04    23 17 07.2 -18 51 27   0.3052  1.1936   118.7    48.4    21.6
2024 07 05    23 19 26.8 -19 00 21   0.3061  1.1959   119.1    48.0    21.6
2024 07 06    23 21 41.5 -19 09 25   0.3070  1.1983   119.6    47.6    21.6
...
2024 07 12    23 33 23.8 -20 06 48   0.3129  1.2141   122.6    44.9    21.6
...
2024 07 20    23 44 20.2 -21 30 03   0.3227  1.2393   127.5    40.6    21.6
...
2024 08 04    23 50 55.1 -24 13 32   0.3480  1.2972   138.9    30.9    21.6
A. U. Tomatic                (C) Copyright 2024 MPC           M.P.E.C. 2024-N47
    
    
More information about the Iaude
mailing list